Location: Betzi
(47.2343°N, 9.5260°E)
Time: 23:02:16
(UTC+00:00)

Cosmos 1328 - Pass Details

Date: 27 May 2022
Orbit: 524 x 551 km, 82.5° (Epoch: 29 June)

Event Time Altitude Azimuth Distance (km) Brightness Sun altitude
Exits shadow 02:45:22 - 205° (SSW) 1,991 6.1 -7.3°
Reaches altitude 10° 02:45:52 10° 207° (SSW) 1,792 5.8 -7.2°
Maximum altitude 02:49:41 49° 283° (WNW) 709 4.2 -6.7°
Drops below altitude 10° 02:53:35 10° 359° (N) 1,824 7.1 -6.2°
Sets 02:55:50 0° 5° (N) 2,726 8.1 -6.0°
